Tracking 25648 objects as of 17-May-2022
HD Live streaming from Space Station
objects crossing your sky now

COSMOS 1748

Track COSMOS 1748 now!
10-day predictions
COSMOS 1748 is classified as:


NORAD ID: 16758
Int'l Code: 1986-042A
Perigee: 1,460.1 km
Apogee: 1,476.8 km
Inclination: 74.0 °
Period: 115.1 minutes
Semi major axis: 7839 km
RCS: 0.6965 m2 (medium)
Launch date: June 6, 1986
Source: Commonwealth of Independent States (former USSR) (CIS)
Launch site: PLESETSK MISSILE AND SPACE COMPLEX (PKMTR)
aabbcc
Your satellite tracking list
Your tracking list is empty




NASA's NSSDC Master Catalog

Two Line Element Set (TLE):
1 16758U 86042A   22136.42894449 -.00000026  00000-0 -68377-4 0  9990
2 16758  74.0154 121.8578 0010647 182.0247 292.0537 12.50753621641184
Source of the keplerian elements: AFSPC